Theta_e
298 298 299 299 299 299 299 299 298 298 298 298 298 297 297 297 296 296 295 295 294 294 294 294 294 293 293 293 293 293 292 292 292 291 291 291 290 290 290 290 290 291
297 297 297 298 298 298 298 298 298 297 297 297 297 297 297 297 296 296 296 295 294 294 294 294 293 293 293 293 293 292 292 291 291 291 291 291 290 290 290 290 290 290
296 296 296 297 297 297 297 297 297 297 297 297 297 296 296 296 296 296 296 295 295 294 294 293 293 293 293 293 293 292 292 291 291 291 291 291 290 290 289 289 289 289
294 295 295 296 296 296 296 296 296 296 296 296 296 296 296 296 296 295 295 295 295 294 294 294 293 293 293 293 292 292 291 291 291 291 290 290 290 289 289 289 289 289
293 293 293 294 294 295 295 296 296 296 296 295 295 295 295 295 295 295 295 294 294 294 294 293 293 293 293 292 292 291 291 291 291 291 290 290 289 289 289 288 288 288
292 292 292 292 292 293 294 295 295 295 295 295 295 295 294 295 294 294 294 294 294 294 293 293 293 293 292 292 291 291 291 291 290 290 290 290 289 289 289 288 288 288
291 291 291 291 291 292 292 293 293 294 294 294 294 294 294 294 294 294 294 294 294 294 293 293 293 293 292 292 291 291 290 290 290 290 290 289 289 289 289 288 288 288
289 290 290 291 291 291 291 291 292 292 293 293 293 293 293 293 293 293 293 293 293 293 293 293 293 293 292 291 291 291 290 290 290 289 289 289 288 288 288 288 288 287
288 288 289 289 290 290 290 291 291 291 291 292 292 292 292 292 293 293 293 293 293 293 293 293 293 292 292 292 291 290 290 290 290 289 289 289 288 288 288 288 287 287
288 287 288 288 288 289 289 290 291 291 291 291 291 292 292 292 292 292 292 292 292 292 292 292 292 292 292 292 291 291 290 290 290 289 289 289 289 288 288 288 287 287
287 287 287 287 287 287 287 288 289 290 291 291 290 290 291 291 292 292 291 291 291 291 291 292 292 292 292 291 291 291 291 290 290 289 289 289 289 288 288 288 288 287
286 286 286 286 286 286 286 287 287 288 289 290 290 290 290 290 291 291 291 291 291 291 291 291 291 291 291 291 291 291 291 290 290 289 289 288 288 288 288 288 288 288
286 286 286 286 286 286 286 286 286 286 287 288 289 290 290 290 290 290 290 290 291 291 291 291 291 291 290 290 290 290 290 290 289 289 288 288 288 288 287 287 287 287
286 285 285 285 285 285 285 285 285 286 286 286 287 288 289 289 289 289 290 290 290 290 290 290 290 290 290 290 290 289 289 289 289 289 288 288 287 287 287 287 286 286
286 286 285 285 285 285 285 285 285 285 285 286 286 286 287 288 289 289 289 289 290 290 290 290 290 290 290 290 289 289 289 289 288 288 288 288 287 287 286 286 286 286
287 286 285 284 284 284 284 284 284 284 285 285 285 285 286 286 287 288 288 289 289 289 289 289 289 289 289 289 289 289 289 289 288 288 288 287 287 287 286 286 286 286
287 287 286 285 284 284 284 284 284 284 284 284 284 284 285 285 285 286 287 288 288 288 289 289 289 289 289 289 289 289 289 289 288 288 288 287 287 287 287 286 286 286
287 286 286 285 285 284 284 284 284 284 284 284 284 284 284 284 285 285 285 286 287 288 288 288 288 288 289 288 288 288 288 288 288 288 288 287 287 287 287 286 286 286
286 286 285 285 285 284 283 283 283 284 284 284 284 283 283 283 284 284 285 285 286 287 287 288 288 288 288 288 288 288 288 288 288 288 288 287 287 287 287 287 286 286
285 285 284 284 284 284 283 283 283 284 284 284 284 284 283 283 283 283 284 284 285 285 286 287 287 288 288 288 287 288 288 288 288 288 288 288 287 287 287 287 286 286
283 283 283 283 283 283 283 283 283 284 284 284 285 284 284 284 284 284 283 284 284 284 285 286 286 287 287 287 287 287 287 288 288 288 288 288 287 287 287 286 286 286
283 283 283 282 282 281 281 281 282 283 283 284 284 284 284 284 284 284 284 284 283 284 284 285 285 285 286 287 287 287 287 288 288 288 288 288 287 287 287 286 286 285
283 282 282 282 281 281 280 280 281 282 282 283 283 283 283 283 283 283 283 283 283 283 283 284 284 284 285 286 287 287 287 288 288 288 288 288 288 287 287 286 286 285
282 282 281 281 280 280 279 279 280 281 281 281 281 282 282 282 282 282 282 282 282 282 283 283 283 283 284 285 286 286 287 287 287 288 288 288 288 288 287 286 286 285
281 281 280 280 279 279 278 278 278 279 279 279 280 281 281 282 283 283 282 282 282 282 282 282 282 283 283 284 284 285 286 286 287 287 288 288 288 288 287 286 286 285
280 279 279 278 278 277 277 277 277 277 278 278 278 279 279 280 281 281 281 281 281 281 281 282 282 282 283 283 283 284 285 286 286 287 287 288 288 288 287 286 285 285
Wind_Speed
12 11 12 12 13 13 13 13 13 14 16 18 22 26 29 31 33 34 37 39 42 44 45 46 46 46 47 48 47 47 47 48 49 50 50 50 50 50 49 48 45 42
13 12 12 13 13 13 13 13 15 16 18 20 23 25 27 30 32 33 35 37 40 42 44 45 46 46 47 47 46 46 47 47 48 49 49 49 50 50 50 50 49 46
15 14 13 14 14 15 15 14 16 18 18 19 22 25 27 29 31 32 33 35 38 40 43 44 46 46 47 47 46 46 47 47 48 49 49 49 49 50 51 51 50 49
17 15 14 14 14 15 16 15 16 18 18 19 22 25 27 29 30 31 32 34 36 38 40 42 44 45 46 47 46 47 47 47 48 47 47 48 48 49 49 49 49 49
20 17 15 13 13 14 16 16 16 16 18 21 24 25 27 29 30 30 31 32 34 36 38 40 42 43 44 45 46 46 46 47 47 47 46 47 47 48 48 48 47 47
27 25 21 18 16 14 14 16 16 16 17 21 24 25 27 28 29 30 31 32 34 35 37 38 39 41 42 43 44 46 46 46 47 47 48 48 47 48 48 48 48 47
31 31 28 26 22 18 15 16 16 16 18 21 24 25 27 28 29 30 31 33 34 35 36 37 38 39 41 42 43 44 45 45 45 44 47 48 46 46 48 49 48 48
29 30 30 30 27 22 18 17 17 17 18 20 22 24 26 27 28 29 31 32 34 35 36 37 38 39 40 41 42 42 42 44 44 43 44 45 43 44 46 47 47 47
24 26 27 28 29 27 25 23 20 18 17 17 19 20 22 24 26 27 29 30 32 34 36 37 38 38 39 40 42 42 42 44 46 45 45 45 45 46 46 46 47 47
22 24 25 27 28 28 28 28 26 23 19 17 17 18 19 21 22 24 26 27 29 32 34 36 38 39 40 41 43 44 44 45 46 47 48 48 49 50 49 48 49 50
26 27 28 28 28 27 28 28 27 26 24 20 17 17 19 20 20 21 23 24 26 29 32 34 36 38 40 42 44 45 45 46 45 46 48 49 51 51 50 50 51 54
26 27 28 28 27 27 27 27 26 26 25 24 21 18 17 18 19 20 23 25 27 29 32 33 35 37 39 41 43 44 46 47 46 46 47 48 51 52 51 50 52 56
22 23 23 24 24 25 26 27 27 27 26 25 23 21 19 17 18 20 23 25 28 30 32 33 35 37 39 40 41 42 44 46 46 46 46 47 49 51 50 50 52 54
19 21 22 22 23 24 25 26 27 27 27 26 25 23 21 19 17 17 19 21 25 28 31 33 34 36 37 38 39 41 42 43 44 45 45 45 45 47 49 50 50 51
17 20 22 23 24 25 25 26 27 27 27 27 26 25 24 23 20 18 17 17 20 23 27 30 32 34 34 34 36 38 39 41 43 45 45 44 43 44 46 49 50 49
17 17 20 23 24 24 25 26 27 27 27 26 26 26 26 24 24 23 21 19 18 19 23 26 30 33 33 32 34 35 36 39 41 43 44 43 43 43 43 47 50 49
16 17 19 21 23 24 25 26 27 27 27 26 26 26 26 25 25 24 23 22 19 19 20 22 27 30 30 32 34 35 35 37 39 40 41 42 43 43 43 45 47 49
16 16 18 20 22 23 25 26 26 27 27 27 27 27 27 27 26 25 24 23 22 21 21 21 23 26 27 30 32 34 35 37 37 37 38 40 42 43 44 43 44 47
17 18 20 19 19 23 26 27 27 27 27 27 28 29 29 29 29 28 27 25 23 22 23 22 23 23 24 27 30 32 34 35 36 37 37 38 41 43 45 44 44 44
24 24 25 23 21 21 23 24 25 26 26 26 26 27 29 31 31 31 30 29 26 25 24 24 24 24 23 24 27 30 32 33 36 37 38 39 41 43 45 45 45 44
28 28 29 29 27 24 23 23 23 24 24 23 21 22 24 26 27 29 31 30 29 28 28 28 28 26 24 23 25 27 29 31 33 36 40 42 43 44 44 45 45 45
28 29 31 33 32 30 30 28 24 24 24 22 21 22 22 22 24 27 28 29 30 30 30 31 32 29 25 23 23 24 26 28 30 33 37 42 44 44 44 44 45 44
24 27 30 33 34 34 35 33 27 25 24 22 21 23 23 25 29 29 29 31 33 32 30 32 34 33 28 25 24 22 22 25 28 30 32 38 42 44 44 43 44 44
22 25 29 31 33 34 36 35 31 29 27 24 23 24 25 28 29 28 31 35 35 33 32 33 35 36 32 28 26 23 21 24 26 27 29 33 37 41 43 43 43 43
24 28 29 29 31 32 32 32 31 31 30 27 24 24 25 27 25 24 30 35 36 36 35 35 37 39 36 32 30 26 22 24 25 25 27 30 32 35 38 39 41 42
28 30 29 29 31 31 31 30 29 28 27 27 27 26 26 26 26 26 30 35 39 39 37 36 38 40 39 34 32 29 25 24 25 25 28 29 30 31 32 34 38 40
Wind_Direction
286 276 269 268 269 267 263 255 247 243 242 242 244 245 246 246 243 241 238 235 232 231 231 230 230 229 229 228 228 227 227 227 227 227 227 226 226 226 226 226 226 227
307 291 278 271 267 265 264 261 256 252 249 249 251 251 251 251 249 246 243 240 237 235 233 232 231 231 230 230 229 228 227 227 228 228 228 228 227 227 227 227 227 227
328 314 300 289 280 273 267 263 263 263 259 255 256 257 255 255 254 251 248 244 241 238 236 234 233 232 232 231 231 230 229 229 229 229 229 228 228 228 228 228 227 227
347 329 314 302 294 287 279 270 268 268 266 263 263 264 262 260 259 254 251 247 244 241 239 237 235 234 234 232 231 231 230 230 231 230 229 229 229 229 228 228 227 227
10 356 340 326 315 304 293 282 276 274 272 272 271 270 268 266 263 257 252 250 246 244 241 240 238 236 235 233 231 231 230 230 231 230 229 229 229 229 228 228 227 227
26 21 12 2 352 335 313 298 292 285 281 280 278 275 272 269 265 259 256 253 251 247 244 242 240 238 236 234 232 231 231 230 230 230 229 229 229 229 229 227 226 226
29 27 24 21 15 2 341 325 315 307 300 295 288 281 277 272 267 263 261 257 254 251 247 244 242 239 237 234 232 232 231 231 231 230 229 228 228 229 229 227 226 225
28 27 26 25 23 16 2 348 337 327 318 309 298 288 282 277 271 266 264 261 257 253 251 248 245 242 239 236 234 232 231 231 231 229 229 229 227 228 228 227 226 225
24 25 25 25 25 22 16 9 359 348 334 319 307 298 288 281 276 271 266 261 258 255 252 250 247 245 242 239 237 235 233 233 232 230 229 229 228 229 229 227 225 225
18 20 21 22 23 21 19 17 14 8 356 337 318 306 297 289 285 280 273 264 258 256 253 252 250 248 245 243 241 239 237 237 236 234 232 231 230 230 229 228 226 225
13 14 16 16 16 15 15 16 16 14 10 1 343 322 308 299 291 285 280 270 262 259 257 254 252 250 248 246 245 243 242 240 239 238 237 235 234 232 231 230 229 228
8 9 9 9 8 8 8 9 10 10 11 10 3 349 330 313 300 290 285 278 270 266 263 258 255 252 249 248 246 245 244 243 242 242 241 239 238 236 235 233 233 233
2 3 2 2 2 2 1 2 3 3 4 6 5 1 352 334 314 300 292 286 278 272 267 262 259 256 252 250 248 246 245 244 242 242 243 243 242 240 238 237 236 236
354 355 355 355 355 357 357 357 358 357 357 358 358 359 356 349 335 315 300 290 282 277 272 266 262 258 254 251 249 247 246 244 243 243 243 244 244 243 241 240 239 238
345 347 349 350 350 350 350 351 351 352 352 351 351 351 351 351 348 339 323 303 288 281 277 271 264 259 256 253 250 248 246 245 244 244 243 243 243 244 242 241 240 239
335 336 339 342 343 343 342 343 344 345 345 345 345 345 344 345 345 344 339 325 304 287 281 277 270 264 260 256 254 251 247 246 245 244 242 241 242 242 242 241 240 239
325 325 328 331 333 335 335 336 336 336 336 337 337 337 338 338 337 338 337 332 320 304 291 280 275 273 269 263 259 254 250 247 246 243 241 239 240 240 240 241 240 240
316 316 319 320 323 326 327 329 329 329 329 328 328 330 330 330 330 329 328 326 322 316 306 291 282 282 277 269 264 259 254 250 247 244 241 240 240 240 240 241 240 240
311 311 312 313 315 318 321 323 322 322 322 322 323 325 325 324 324 322 321 319 316 312 308 300 293 292 286 275 269 265 260 254 249 247 245 242 241 241 240 240 240 239
310 310 310 310 311 313 316 317 316 315 315 314 315 317 318 318 318 318 317 315 311 307 304 301 299 300 296 285 276 270 264 257 251 249 247 246 244 242 241 240 239 238
306 306 306 307 308 310 311 309 308 307 307 307 305 304 307 308 308 310 311 311 309 306 302 299 299 301 301 294 282 273 265 258 252 249 248 247 246 244 243 242 240 238
299 299 300 302 304 306 306 305 303 302 301 301 299 297 297 296 297 300 302 302 304 303 299 295 295 297 297 294 287 275 263 255 250 248 247 247 247 245 243 242 241 239
287 289 291 294 297 300 302 302 302 300 299 299 298 296 294 294 296 297 297 298 299 297 294 291 291 293 291 289 287 278 263 255 251 249 247 246 247 247 245 243 241 239
277 280 283 286 289 291 294 297 298 297 297 297 295 292 290 291 293 293 294 297 297 295 293 290 290 292 290 285 284 279 264 254 251 251 251 248 247 247 246 244 244 241
277 279 280 280 283 285 287 290 291 291 292 293 292 290 288 289 288 286 289 293 292 292 292 290 289 291 290 284 281 277 265 253 250 250 253 253 250 247 246 245 244 242
281 280 279 278 280 282 283 284 284 284 285 287 289 288 286 285 284 283 285 286 287 288 288 286 285 287 288 284 279 276 268 254 246 246 250 253 254 250 246 243 241 240